"1999/01/01", 6.6, 6.9, 5.9
"1999/01/02", 6.1, 6.7, 5.0
"1999/01/03", 6.2, 6.7, 5.6
"1999/01/04", 5.3, 5.7, 4.4
"1999/01/05", 5.4, 6.1, 4.4
"1999/01/06", 5.8, 6.2, 5.3
"1999/01/07", 5.9, 6.5, 5.5
"1999/01/08", 5.7, 6.0, 5.0
"1999/01/09", 5.0, 5.4, 4.4
"1999/01/10", 4.7, 5.2, 4.3
"1999/01/11", 4.3, 4.7, 3.6
"1999/01/12", 3.8, 4.6, 2.9
"1999/01/13", 4.0, 4.7, 3.4
"1999/01/14", 4.1, 4.9, 3.5
"1999/01/15", 4.1, 4.2, 3.8
"1999/01/16", 4.3, 5.0, 3.8
"1999/01/17", 4.2, 4.7, 3.4
"1999/01/18", 4.5, 5.2, 3.8
"1999/01/19", 4.5, 4.9, 4.1
"1999/01/20", 4.9, 5.7, 4.3
"1999/01/21", 4.9, 5.6, 4.5
"1999/01/22", 4.9, 5.3, 4.4
"1999/01/23", 5.1, 5.7, 4.6
"1999/01/24", 4.9, 5.1, 4.7
"1999/01/25", 4.9, 5.2, 4.6
"1999/01/26", 5.6, 6.4, 5.0
"1999/01/27", 5.7, 6.0, 5.6
"1999/01/28", 6.1, 7.1, 5.3
"1999/01/29", 6.3, 7.1, 5.7
"1999/01/30", 5.9, 6.3, 5.5
"1999/01/31", 5.5, 6.2, 4.6
"1999/02/01", 5.8, 6.6, 5.1
"1999/02/02", 5.7, 6.3, 5.4
"1999/02/03", 5.5, 5.7, 5.1
"1999/02/04", 4.3, 5.2, 3.1
"1999/02/05", 4.4, 5.3, 3.7
"1999/02/06", 4.3, 4.8, 3.4
"1999/02/07", 4.4, 5.4, 3.5
"1999/02/08", 4.8, 5.7, 4.2
"1999/02/09", 5.2, 5.6, 4.7
"1999/02/10", 5.4, 6.5, 4.8
"1999/02/11", 5.3, 5.6, 5.0
"1999/02/12", 5.1, 5.7, 4.5
"1999/02/13", 4.6, 5.1, 3.4
"1999/02/14", 3.6, 4.3, 2.6
"1999/02/15", 4.0, 5.0, 2.8
"1999/02/16", 5.1, 6.4, 4.2
"1999/02/17", 5.6, 6.5, 4.8
"1999/02/18", 5.5, 6.4, 4.9
"1999/02/19", 5.8, 6.1, 5.6
"1999/02/20", 5.8, 6.3, 5.5
"1999/02/21", 5.7, 6.6, 5.2
"1999/02/22", 6.1, 7.1, 5.3
"1999/02/23", 6.2, 7.1, 5.4
"1999/02/24", 6.1, 6.4, 5.9
"1999/02/25", 6.6, 8.0, 5.7
"1999/02/26", 6.6, 7.1, 6.1
"1999/02/27", 7.0, 7.8, 6.0
"1999/02/28"," *"," *"," *"
"1999/03/01"," *"," *"," *"
"1999/03/02", 6.9, 8.2, 6.1
"1999/03/03", 6.7, 7.7, 6.2
"1999/03/04", 7.6, 9.1, 6.5
"1999/03/05", 8.3, 9.6, 7.5
"1999/03/06", 8.5, 9.8, 7.3
"1999/03/07", 8.1, 8.4, 7.6
"1999/03/08", 7.6, 8.0, 7.2
"1999/03/09", 7.5, 7.8, 7.1
"1999/03/10", 6.7, 7.1, 6.5
"1999/03/11", 6.7, 6.8, 6.5
"1999/03/12", 6.9, 8.4, 6.2
"1999/03/13", 7.1, 8.0, 6.4
"1999/03/14", 8.8,10.9, 7.1
"1999/03/15", 8.7, 9.4, 8.4
"1999/03/16", 8.4, 8.8, 8.1
"1999/03/17", 8.9, 9.8, 8.2
"1999/03/18", 9.8,11.0, 8.8
"1999/03/19",10.6,11.5, 9.7
"1999/03/20", 9.1, 9.7, 8.0
"1999/03/21", 8.3, 8.6, 7.8
"1999/03/22", 8.0, 8.9, 6.4
"1999/03/23", 7.8,10.2, 5.8
"1999/03/24", 8.8,11.0, 7.6
"1999/03/25", 9.1, 9.4, 8.7
"1999/03/26",10.5,12.0, 9.2
"1999/03/27",10.5,11.5, 9.6
"1999/03/28", 9.8,10.3, 9.3
"1999/03/29", 9.6,10.3, 9.0
"1999/03/30", 9.4, 9.9, 9.1
"1999/03/31", 9.2, 9.6, 9.0
"1999/04/01",10.0,11.3, 9.0
"1999/04/02",11.9,13.7, 9.6
"1999/04/03",11.4,12.2,10.8
"1999/04/04",11.6,12.3,11.0
"1999/04/05",12.3,13.2,11.4
"1999/04/06",12.0,12.4,11.5
"1999/04/07",12.1,13.9,11.5
"1999/04/08",11.6,12.1,10.9
"1999/04/09",11.9,13.3,10.8
"1999/04/10",12.0,12.5,11.6
"1999/04/11",11.9,12.0,11.7
"1999/04/12",12.5,13.0,11.9
"1999/04/13",14.3,16.3,12.8
"1999/04/14",14.5,16.7,13.5
"1999/04/15",14.5,15.8,13.4
"1999/04/16",14.4,15.1,14.0
"1999/04/17",15.2,17.0,13.9
"1999/04/18",15.1,15.5,14.8
"1999/04/19",14.8,15.3,14.5
"1999/04/20",15.8,17.9,14.3
"1999/04/21",15.8,16.3,15.4
"1999/04/22",16.3,17.3,15.5
"1999/04/23",16.2,16.4,15.8
"1999/04/24",15.7,16.0,15.5
"1999/04/25",15.4,16.1,14.8
"1999/04/26",16.5,17.4,15.6
"1999/04/27",17.8,19.1,16.6
"1999/04/28",18.1,19.3,17.2
"1999/04/29",17.1,17.5,16.3
"1999/04/30",17.1,19.2,15.7
"1999/05/01",17.0,17.9,16.0
"1999/05/02",18.0,20.2,16.9
"1999/05/03",17.7,18.5,17.1
"1999/05/04",17.6,18.1,17.2
"1999/05/05",18.0,19.3,17.1
"1999/05/06",18.2,19.1,17.8
"1999/05/07",19.0,20.5,17.7
"1999/05/08",19.4,20.1,18.7
"1999/05/09",19.4,20.3,18.8
"1999/05/10",19.3,20.1,18.8
"1999/05/11",18.9,19.4,18.3
"1999/05/12",19.1,20.7,18.1
"1999/05/13",20.1,21.7,19.1
"1999/05/14",19.4,20.0,18.9
"1999/05/15",19.0,19.3,18.5
"1999/05/16",18.4,18.8,18.0
"1999/05/17",19.2,21.2,18.1
"1999/05/18",19.0,19.5,18.6
"1999/05/19",18.9,19.1,18.8
"1999/05/20",19.4,20.0,18.8
"1999/05/21",20.6,22.7,19.3
"1999/05/22",20.8,22.3,20.3
"1999/05/23",21.8,23.8,20.2
"1999/05/24",21.1,21.9,20.4
"1999/05/25",21.3,23.2,20.1
"1999/05/26",21.0,21.8,20.5
"1999/05/27",21.3,22.2,20.6
"1999/05/28",20.9,21.1,20.6
"1999/05/29",20.2,20.6,19.9
"1999/05/30",21.2,23.6,19.8
"1999/05/31",21.2,22.6,20.3
"1999/06/01",21.6,23.1,20.5
"1999/06/02",22.3,23.9,20.9
"1999/06/03",22.8,25.1,21.6
"1999/06/04",22.7,23.6,22.2
"1999/06/05",23.4,25.3,22.2
"1999/06/06",23.6,24.9,22.6
"1999/06/07",23.5,24.2,22.6
"1999/06/08",23.5,26.3,22.4
"1999/06/09",23.4,25.4,22.5
"1999/06/10",23.0,23.8,22.5
"1999/06/11",23.1,23.6,22.7
"1999/06/12",23.5,24.1,22.9
"1999/06/13",23.6,24.1,23.2
"1999/06/14",24.0,24.9,23.5
"1999/06/15",24.1,24.7,23.7
"1999/06/16",24.3,26.7,23.7
"1999/06/17",24.0,24.7,23.6
"1999/06/18",22.9,23.7,22.2
"1999/06/19",21.6,22.2,21.0
"1999/06/20",21.1,21.5,20.8
"1999/06/21",22.4,24.9,21.1
"1999/06/22",21.8,22.3,21.4
"1999/06/23",22.8,25.7,21.5
"1999/06/24",23.5,24.5,22.4
"1999/06/25",23.0,23.7,22.6
"1999/06/26",23.2,24.3,22.4
"1999/06/27",22.8,23.4,22.6
"1999/06/28",22.6,22.8,22.3
"1999/06/29",22.2,22.5,22.0
"1999/06/30",22.2,22.4,21.9
"1999/07/01",22.6,23.2,22.0
"1999/07/02",23.9,26.5,22.6
"1999/07/03",23.8,24.5,23.3
"1999/07/04",24.6,26.5,23.7
"1999/07/05",23.8,24.3,23.2
"1999/07/06",22.7,23.3,22.1
"1999/07/07",22.7,23.5,21.9
"1999/07/08",22.6,23.2,22.1
"1999/07/09",22.1,22.4,21.6
"1999/07/10",21.6,21.8,21.3
"1999/07/11",21.5,21.9,21.1
"1999/07/12",22.2,22.7,21.7
"1999/07/13",22.4,22.7,22.3
"1999/07/14",23.4,24.4,22.4
"1999/07/15",23.8,24.5,23.5
"1999/07/16",24.0,25.1,23.5
"1999/07/17",24.6,25.7,23.8
"1999/07/18",25.0,25.6,24.6
"1999/07/19",25.1,25.6,24.7
"1999/07/20",25.4,26.1,25.0
"1999/07/21",26.2,27.4,25.1
"1999/07/22",27.9,30.7,26.0
"1999/07/23",27.4,28.1,26.5
"1999/07/24",27.2,27.8,26.5
"1999/07/25",27.4,28.4,26.9
"1999/07/26",27.7,28.2,27.1
"1999/07/27",28.1,28.7,27.6
"1999/07/28",28.3,28.8,28.0
"1999/07/29",28.1,28.5,27.8
"1999/07/30",28.3,29.1,27.4
"1999/07/31",28.2,29.0,27.7
"1999/08/01",28.1,28.9,27.6
"1999/08/02",28.5,29.1,28.0
"1999/08/03",28.8,29.4,28.1
"1999/08/04",29.3,30.4,28.5
"1999/08/05",29.2,29.8,28.7
"1999/08/06",29.1,29.6,28.6
"1999/08/07",29.3,29.9,28.7
"1999/08/08",29.8,30.8,29.2
"1999/08/09",29.7,30.5,29.1
"1999/08/10",29.1,29.5,28.7
"1999/08/11",29.0,29.6,28.2
"1999/08/12",30.0,31.8,28.6
"1999/08/13",29.8,30.9,29.1
"1999/08/14",28.7,29.4,28.2
"1999/08/15",28.7,29.3,28.1
"1999/08/16",29.1,29.8,28.5
"1999/08/17",29.1,29.7,28.7
"1999/08/18",29.1,29.8,28.6
"1999/08/19",29.0,29.5,28.5
"1999/08/20",28.9,29.4,28.5
"1999/08/21",28.6,29.1,28.2
"1999/08/22",28.8,29.4,28.4
"1999/08/23",29.8,31.4,28.4
"1999/08/24",29.5,30.2,29.0
"1999/08/25",29.1,29.5,28.6
"1999/08/26",28.6,29.1,28.2
"1999/08/27",28.1,28.6,27.8
"1999/08/28",27.8,28.2,27.5
"1999/08/29",28.1,29.1,27.4
"1999/08/30",28.0,28.7,27.6
"1999/08/31",28.0,28.7,27.3
"1999/09/01",27.7,28.2,27.2
"1999/09/02",27.8,28.2,27.4
"1999/09/03",27.4,27.7,27.0
"1999/09/04",27.0,27.4,26.7
"1999/09/05",27.4,28.8,26.4
"1999/09/06",27.2,27.8,26.5
"1999/09/07",27.0,27.3,26.8
"1999/09/08",27.2,28.0,26.8
"1999/09/09",27.9,28.8,27.2
"1999/09/10",28.1,29.5,27.5
"1999/09/11",27.6,28.3,27.2
"1999/09/12",28.4,29.9,27.3
"1999/09/13",28.3,29.1,27.8
"1999/09/14"," *"," *"," *"
"1999/09/15",28.0,28.5,27.4
"1999/09/16",27.0,27.5,26.6
"1999/09/17",26.1,26.7,25.4
"1999/09/18",25.3,25.6,24.9
"1999/09/19",26.0,27.9,25.1
"1999/09/20",26.1,26.8,25.5
"1999/09/21",25.5,26.3,24.7
"1999/09/22",24.3,24.7,23.7
"1999/09/23",24.2,25.2,23.3
"1999/09/24",24.2,24.5,23.7
"1999/09/25",24.7,25.5,24.1
"1999/09/26",25.3,26.0,24.7
"1999/09/27",25.1,25.7,24.6
"1999/09/28",25.6,27.3,24.6
"1999/09/29",24.7,25.2,24.5
"1999/09/30",25.2,26.6,24.1
"1999/10/01",24.4,25.0,23.9
"1999/10/02",24.3,24.7,23.8
"1999/10/03",23.8,24.4,23.3
"1999/10/04",22.8,23.3,22.5
"1999/10/05",22.1,22.5,21.9
"1999/10/06",22.0,22.5,21.6
"1999/10/07",22.2,23.0,21.7
"1999/10/08",22.0,22.2,21.8
"1999/10/09",21.4,21.8,20.9
"1999/10/10",20.9,21.4,20.5
"1999/10/11",21.3,22.3,20.4
"1999/10/12",22.2,23.7,20.9
"1999/10/13",22.7,24.4,21.8
"1999/10/14",22.3,23.9,21.8
"1999/10/15",21.3,21.8,20.8
"1999/10/16",20.6,20.8,20.3
"1999/10/17",20.0,20.3,19.4
"1999/10/18",19.2,19.6,18.8
"1999/10/19"," *"," *"," *"
"1999/10/20"," *"," *"," *"
"1999/10/21",18.0,19.9,16.9
"1999/10/22",17.8,18.2,17.6
"1999/10/23",18.3,19.6,17.5
"1999/10/24",18.1,19.1,17.5
"1999/10/25",17.2,17.6,17.0
"1999/10/26",17.2,17.8,16.2
"1999/10/27",17.1,17.3,17.0
"1999/10/28",17.1,17.8,16.8
"1999/10/29",17.5,18.8,16.5
"1999/10/30",17.6,18.5,17.0
"1999/10/31",17.1,17.3,16.9
"1999/11/01",17.2,17.8,16.8
"1999/11/02",16.9,17.2,16.5
"1999/11/03",16.4,16.7,16.2
"1999/11/04",16.0,16.3,15.6
"1999/11/05",15.9,16.9,15.1
"1999/11/06",15.9,16.7,15.2
"1999/11/07",15.6,15.8,15.4
"1999/11/08",16.2,17.5,15.5
"1999/11/09",16.0,16.4,15.5
"1999/11/10",15.2,15.5,14.6
"1999/11/11",15.4,17.0,14.6
"1999/11/12",15.6,15.9,15.3
"1999/11/13",15.7,16.9,14.9
"1999/11/14",15.7,16.1,15.3
"1999/11/15",15.3,15.5,15.2
"1999/11/16",14.9,15.3,14.2
"1999/11/17",13.9,14.3,13.4
"1999/11/18",13.0,13.5,12.5
"1999/11/19",13.4,14.5,12.5
"1999/11/20",13.5,13.9,13.0
"1999/11/21",13.8,14.9,13.2
"1999/11/22",14.0,14.9,13.2
"1999/11/23",13.7,14.0,13.4
"1999/11/24",13.3,13.4,13.1
"1999/11/25",13.7,14.6,12.9
"1999/11/26",13.6,14.0,13.0
"1999/11/27",12.6,13.0,12.3
"1999/11/28",12.4,12.7,12.1
"1999/11/29",12.0,12.3,11.7
"1999/11/30",11.7,12.2,11.3
"1999/12/01",11.3,11.5,11.0
"1999/12/02",11.2,11.4,10.9
"1999/12/03",10.6,11.1, 9.8
"1999/12/04",10.1,10.5, 9.3
"1999/12/05",10.2,10.6, 9.9
"1999/12/06",10.3,10.6,10.1
"1999/12/07", 9.7,10.3, 9.1
"1999/12/08", 9.3, 9.6, 8.7
"1999/12/09", 9.4, 9.8, 8.9
"1999/12/10", 9.4, 9.9, 8.8
"1999/12/11", 9.5,10.3, 9.1
"1999/12/12", 8.8, 9.2, 8.4
"1999/12/13", 8.6, 9.2, 8.3
"1999/12/14", 8.3, 8.6, 7.6
"1999/12/15", 8.0, 8.2, 7.8
"1999/12/16", 8.2, 8.9, 7.8
"1999/12/17", 8.3, 9.0, 7.6
"1999/12/18", 8.1, 8.4, 7.7
"1999/12/19", 7.8, 8.3, 7.5
"1999/12/20", 7.3, 7.7, 6.7
"1999/12/21", 6.7, 7.1, 6.1
"1999/12/22", 7.0, 7.9, 6.3
"1999/12/23", 6.6, 6.9, 6.3
"1999/12/24"," *"," *"," *"
"1999/12/25"," *"," *"," *"
"1999/12/26"," *"," *"," *"
"1999/12/27"," *"," *"," *"
"1999/12/28"," *"," *"," *"
"1999/12/29", 6.4, 6.7, 6.0
"1999/12/30", 6.6, 6.9, 6.3
"1999/12/31", 6.6, 6.8, 6.5
